TimePDT,TemperatureF,Dew PointF,Humidity,Sea Level PressureIn,VisibilityMPH,Wind Direction,Wind SpeedMPH,Gust SpeedMPH,PrecipitationIn,Events,Conditions,WindDirDegrees,DateUTC
12:56 AM,34.0,28.9,82,29.98,4.0,South,9.2,-,0.00,Snow,Light Snow,170,2014-04-04 07:56:00
1:37 AM,34.0,30.0,85,29.96,6.0,South,6.9,-,0.00,Snow,Light Snow,170,2014-04-04 08:37:00
1:44 AM,34.0,30.0,85,29.96,6.0,SSE,8.1,-,0.00,Snow,Light Snow,160,2014-04-04 08:44:00
1:56 AM,34.0,30.9,89,29.97,6.0,South,8.1,-,0.00,Snow,Light Snow,170,2014-04-04 08:56:00
2:38 AM,34.0,30.9,89,29.95,9.0,SSW,8.1,-,0.00,Snow,Light Snow,210,2014-04-04 09:38:00
2:56 AM,33.1,30.9,92,29.96,6.0,SSW,8.1,-,0.00,Snow,Light Snow,200,2014-04-04 09:56:00
3:37 AM,34.0,30.9,89,29.94,10.0,South,6.9,-,0.00,,Overcast,170,2014-04-04 10:37:00
3:56 AM,34.0,30.9,89,29.95,10.0,South,9.2,-,0.00,,Overcast,170,2014-04-04 10:56:00
4:56 AM,33.1,32.0,96,29.96,6.0,South,10.4,-,0.00,Snow,Light Snow,170,2014-04-04 11:56:00
5:56 AM,33.1,32.0,96,29.96,10.0,South,9.2,-,0.00,,Overcast,170,2014-04-04 12:56:00
6:05 AM,33.1,32.0,96,29.93,10.0,South,9.2,-,N/A,,Overcast,180,2014-04-04 13:05:00
6:13 AM,33.1,32.0,96,29.93,10.0,South,9.2,-,N/A,,Overcast,170,2014-04-04 13:13:00
6:53 AM,33.8,32.0,93,29.94,10.0,South,9.2,-,N/A,,Overcast,170,2014-04-04 13:53:00
6:56 AM,33.1,32.0,96,29.98,10.0,South,9.2,-,N/A,,Overcast,170,2014-04-04 13:56:00
7:48 AM,34.0,33.1,96,29.95,10.0,South,8.1,-,N/A,,Overcast,170,2014-04-04 14:48:00
7:56 AM,34.0,33.1,96,29.99,10.0,SSE,6.9,-,N/A,,Overcast,160,2014-04-04 14:56:00
8:49 AM,35.1,34.0,96,29.96,10.0,South,6.9,-,N/A,,Overcast,170,2014-04-04 15:49:00
8:56 AM,35.1,33.1,92,30.00,10.0,South,6.9,-,N/A,,Overcast,170,2014-04-04 15:56:00
9:47 AM,37.0,35.1,93,29.96,10.0,SSE,4.6,-,N/A,,Overcast,160,2014-04-04 16:47:00
9:56 AM,37.0,35.1,93,30.01,10.0,SE,5.8,-,N/A,,Overcast,140,2014-04-04 16:56:00
10:08 AM,37.0,34.0,89,29.97,9.0,SSE,4.6,-,N/A,,Overcast,150,2014-04-04 17:08:00
10:23 AM,39.9,35.1,83,29.97,10.0,Variable,6.9,-,N/A,,Overcast,0,2014-04-04 17:23:00
10:56 AM,41.0,35.1,79,29.99,10.0,South,5.8,-,N/A,,Mostly Cloudy,190,2014-04-04 17:56:00
11:11 AM,39.0,33.1,79,29.97,10.0,South,5.8,-,N/A,,Partly Cloudy,180,2014-04-04 18:11:00
11:40 AM,42.1,34.0,73,29.97,10.0,Variable,5.8,-,N/A,,Mostly Cloudy,0,2014-04-04 18:40:00
11:48 AM,41.0,34.0,76,29.97,10.0,Variable,4.6,-,N/A,,Mostly Cloudy,0,2014-04-04 18:48:00
11:56 AM,39.9,34.0,79,30.00,10.0,South,5.8,-,N/A,,Overcast,190,2014-04-04 18:56:00
12:18 PM,43.0,37.0,80,29.97,10.0,Variable,4.6,-,N/A,,Mostly Cloudy,0,2014-04-04 19:18:00
12:25 PM,42.1,35.1,76,29.97,10.0,Variable,5.8,-,N/A,,Mostly Cloudy,0,2014-04-04 19:25:00
12:27 PM,42.1,35.1,76,29.97,10.0,Variable,3.5,-,N/A,,Mostly Cloudy,0,2014-04-04 19:27:00
12:47 PM,45.0,35.1,68,29.97,10.0,Variable,5.8,-,N/A,,Mostly Cloudy,0,2014-04-04 19:47:00
12:56 PM,44.1,35.1,71,29.99,10.0,South,6.9,-,N/A,,Mostly Cloudy,180,2014-04-04 19:56:00
1:08 PM,46.9,36.0,66,29.96,10.0,SSE,8.1,-,N/A,,Scattered Clouds,160,2014-04-04 20:08:00
1:56 PM,48.0,35.1,61,29.97,10.0,Variable,3.5,-,N/A,,Mostly Cloudy,0,2014-04-04 20:56:00
2:56 PM,45.0,32.0,60,29.98,10.0,Calm,Calm,-,N/A,,Mostly Cloudy,0,2014-04-04 21:56:00
3:56 PM,45.0,34.0,65,29.96,10.0,Calm,Calm,-,N/A,,Mostly Cloudy,0,2014-04-04 22:56:00
4:56 PM,46.0,33.1,61,29.96,10.0,WSW,4.6,-,N/A,,Mostly Cloudy,240,2014-04-04 23:56:00
5:56 PM,42.1,36.0,79,29.99,7.0,Variable,3.5,-,0.00,Rain,Light Rain,0,2014-04-05 00:56:00
6:56 PM,41.0,36.0,82,30.00,10.0,NNW,6.9,-,0.00,,Mostly Cloudy,330,2014-04-05 01:56:00
7:56 PM,39.0,35.1,86,30.01,10.0,Variable,4.6,-,N/A,,Mostly Cloudy,0,2014-04-05 02:56:00
8:56 PM,37.0,33.1,86,30.03,10.0,Variable,6.9,-,N/A,,Overcast,0,2014-04-05 03:56:00
9:16 PM,37.9,33.1,83,29.99,10.0,WNW,4.6,-,N/A,,Overcast,290,2014-04-05 04:16:00
9:56 PM,37.9,32.0,79,30.03,10.0,WSW,5.8,-,N/A,,Overcast,250,2014-04-05 04:56:00
10:56 PM,36.0,32.0,86,30.03,9.0,SSW,8.1,-,0.00,Snow,Light Snow,200,2014-04-05 05:56:00
11:29 PM,36.0,32.0,86,30.01,10.0,SSW,11.5,-,0.00,,Overcast,200,2014-04-05 06:29:00
11:56 PM,36.0,33.1,89,30.04,10.0,South,9.2,-,0.00,,Overcast,190,2014-04-05 06:56:00